Volver al catálogo

ONEWEB-0369

ActivoComunicacionesPO
NORAD 49295·PAYLOAD·🇬🇧 United Kingdom

Lanzado Oct 14, 2021 desde Vostochny Cosmodrome

Loading…

Próximos Pases (próximas 24 horas)

TLE

ActualizadoSource: CelesTrak SupGP

Época: Sep 14, 2026, 17:52 UTC

1 49295C 21090S   26257.74496944 -.00002610  00000+0 -65262-2 0  2570
2 49295  87.9103 287.1320 0002378  96.1618  14.8880 13.19726991    11

Sigue ONEWEB-0369 en tiempo real con AllMySat

Download on the App Store